Time,TemperatureF,DewpointF,PressureIn,WindDirection,WindDirectionDegrees,WindSpeedMPH,WindSpeedGustMPH,Humidity,HourlyPrecipIn,Conditions,Clouds,dailyrainin,SoftwareType,DateUTC
2013-08-09 00:01:00,76.6,68.9,29.72,North,-999,-999.0,-999.0,77,-99.99,,,-99.99,meteohub,2013-08-09 04:01:00,
2013-08-09 00:02:00,76.6,68.9,29.72,North,-999,-999.0,-999.0,77,-99.99,,,-99.99,meteohub,2013-08-09 04:02:00,
2013-08-09 00:03:00,76.6,68.9,29.72,North,-999,-999.0,-999.0,77,-99.99,,,-99.99,meteohub,2013-08-09 04:03:00,
2013-08-09 00:05:00,76.6,68.9,29.72,North,-999,-999.0,-999.0,77,-99.99,,,-99.99,meteohub,2013-08-09 04:05:00,
2013-08-09 00:10:00,76.8,69.1,29.72,North,-999,-999.0,-999.0,77,-99.99,,,-99.99,meteohub,2013-08-09 04:10:00,
2013-08-09 00:15:00,76.8,68.7,29.72,North,-999,-999.0,-999.0,76,-99.99,,,-99.99,meteohub,2013-08-09 04:15:00,
2013-08-09 00:20:00,77.0,68.5,29.72,North,-999,-999.0,-999.0,75,-99.99,,,-99.99,meteohub,2013-08-09 04:20:00,
2013-08-09 00:25:00,77.0,68.5,29.72,North,-999,-999.0,-999.0,75,-99.99,,,-99.99,meteohub,2013-08-09 04:25:00,
2013-08-09 00:30:00,77.0,68.0,29.72,North,-999,-999.0,-999.0,74,-99.99,,,-99.99,meteohub,2013-08-09 04:30:00,
2013-08-09 00:35:00,77.2,68.2,29.72,North,-999,-999.0,-999.0,74,-99.99,,,-99.99,meteohub,2013-08-09 04:35:00,
2013-08-09 00:40:00,77.2,68.2,29.72,North,-999,-999.0,-999.0,74,-99.99,,,-99.99,meteohub,2013-08-09 04:40:00,
2013-08-09 00:46:00,77.2,67.8,29.72,North,-999,-999.0,-999.0,73,-99.99,,,-99.99,meteohub,2013-08-09 04:46:00,
2013-08-09 00:51:00,77.4,67.6,29.72,North,-999,-999.0,-999.0,72,-99.99,,,-99.99,meteohub,2013-08-09 04:51:00,
2013-08-09 00:56:00,77.2,67.8,29.72,North,-999,-999.0,-999.0,73,-99.99,,,-99.99,meteohub,2013-08-09 04:56:00,
2013-08-09 01:01:00,77.2,67.8,29.72,North,-999,-999.0,-999.0,73,-99.99,,,-99.99,meteohub,2013-08-09 05:01:00,
2013-08-09 01:06:00,77.4,68.0,29.72,North,-999,-999.0,-999.0,73,-99.99,,,-99.99,meteohub,2013-08-09 05:06:00,
2013-08-09 01:11:00,77.4,68.4,29.72,North,-999,-999.0,-999.0,74,-99.99,,,-99.99,meteohub,2013-08-09 05:11:00,
2013-08-09 01:16:00,77.5,68.5,29.72,North,-999,-999.0,-999.0,74,-99.99,,,-99.99,meteohub,2013-08-09 05:16:00,
2013-08-09 01:21:00,77.5,68.9,29.72,North,-999,-999.0,-999.0,75,-99.99,,,-99.99,meteohub,2013-08-09 05:21:00,
2013-08-09 01:26:00,77.5,68.5,29.72,North,-999,-999.0,-999.0,74,-99.99,,,-99.99,meteohub,2013-08-09 05:26:00,
2013-08-09 01:31:00,77.5,68.9,29.72,North,-999,-999.0,-999.0,75,-99.99,,,-99.99,meteohub,2013-08-09 05:31:00,
2013-08-09 01:37:00,77.7,69.1,29.72,North,-999,-999.0,-999.0,75,-99.99,,,-99.99,meteohub,2013-08-09 05:37:00,
2013-08-09 01:42:00,77.5,68.9,29.72,North,-999,-999.0,-999.0,75,-99.99,,,-99.99,meteohub,2013-08-09 05:42:00,
2013-08-09 01:47:00,77.5,68.9,29.72,North,-999,-999.0,-999.0,75,-99.99,,,-99.99,meteohub,2013-08-09 05:47:00,
2013-08-09 01:52:00,77.5,69.4,29.72,North,-999,-999.0,-999.0,76,-99.99,,,-99.99,meteohub,2013-08-09 05:52:00,
2013-08-09 01:57:00,77.5,69.4,29.72,North,-999,-999.0,-999.0,76,-99.99,,,-99.99,meteohub,2013-08-09 05:57:00,
2013-08-09 02:02:00,77.5,69.4,29.72,North,-999,-999.0,-999.0,76,-99.99,,,-99.99,meteohub,2013-08-09 06:02:00,
2013-08-09 02:07:00,77.4,69.3,29.72,North,-999,-999.0,-999.0,76,-99.99,,,-99.99,meteohub,2013-08-09 06:07:00,
2013-08-09 02:12:00,77.4,69.6,29.72,North,-999,-999.0,-999.0,77,-99.99,,,-99.99,meteohub,2013-08-09 06:12:00,
2013-08-09 02:17:00,77.2,69.4,29.72,North,-999,-999.0,-999.0,77,-99.99,,,-99.99,meteohub,2013-08-09 06:17:00,
2013-08-09 02:22:00,77.2,69.4,29.72,North,-999,-999.0,-999.0,77,-99.99,,,-99.99,meteohub,2013-08-09 06:22:00,
2013-08-09 02:27:00,77.2,69.4,29.72,North,-999,-999.0,-999.0,77,-99.99,,,-99.99,meteohub,2013-08-09 06:27:00,
2013-08-09 02:32:00,77.0,69.6,29.72,North,-999,-999.0,-999.0,78,-99.99,,,-99.99,meteohub,2013-08-09 06:32:00,
2013-08-09 02:37:00,77.0,69.6,29.72,North,-999,-999.0,-999.0,78,-99.99,,,-99.99,meteohub,2013-08-09 06:37:00,
2013-08-09 02:42:00,76.8,69.4,29.72,North,-999,-999.0,-999.0,78,-99.99,,,-99.99,meteohub,2013-08-09 06:42:00,
2013-08-09 02:47:00,76.8,69.8,29.72,North,-999,-999.0,-999.0,79,-99.99,,,-99.99,meteohub,2013-08-09 06:47:00,
2013-08-09 02:52:00,76.6,69.6,29.72,North,-999,-999.0,-999.0,79,-99.99,,,-99.99,meteohub,2013-08-09 06:52:00,
2013-08-09 02:57:00,76.6,70.0,29.72,North,-999,-999.0,-999.0,80,-99.99,,,-99.99,meteohub,2013-08-09 06:57:00,
2013-08-09 03:02:00,76.6,70.0,29.72,North,-999,-999.0,-999.0,80,-99.99,,,-99.99,meteohub,2013-08-09 07:02:00,
2013-08-09 03:07:00,76.6,70.0,29.72,North,-999,-999.0,-999.0,80,-99.99,,,-99.99,meteohub,2013-08-09 07:07:00,
2013-08-09 03:12:00,76.5,69.8,29.72,North,-999,-999.0,-999.0,80,-99.99,,,-99.99,meteohub,2013-08-09 07:12:00,
2013-08-09 03:17:00,76.5,69.8,29.72,North,-999,-999.0,-999.0,80,-99.99,,,-99.99,meteohub,2013-08-09 07:17:00,
2013-08-09 03:22:00,76.3,69.6,29.72,North,-999,-999.0,-999.0,80,-99.99,,,-99.99,meteohub,2013-08-09 07:22:00,
2013-08-09 03:27:00,76.3,69.6,29.72,North,-999,-999.0,-999.0,80,-99.99,,,-99.99,meteohub,2013-08-09 07:27:00,
2013-08-09 03:32:00,76.3,69.6,29.72,North,-999,-999.0,-999.0,80,-99.99,,,-99.99,meteohub,2013-08-09 07:32:00,
2013-08-09 03:37:00,76.1,69.4,29.72,North,-999,-999.0,-999.0,80,-99.99,,,-99.99,meteohub,2013-08-09 07:37:00,
2013-08-09 03:42:00,76.1,69.4,29.72,North,-999,-999.0,-999.0,80,-99.99,,,-99.99,meteohub,2013-08-09 07:42:00,
2013-08-09 03:47:00,75.9,69.6,29.72,North,-999,-999.0,-999.0,81,-99.99,,,-99.99,meteohub,2013-08-09 07:47:00,
2013-08-09 03:52:00,75.9,69.6,29.72,North,-999,-999.0,-999.0,81,-99.99,,,-99.99,meteohub,2013-08-09 07:52:00,
2013-08-09 03:57:00,75.9,69.6,29.72,North,-999,-999.0,-999.0,81,-99.99,,,-99.99,meteohub,2013-08-09 07:57:00,
2013-08-09 04:02:00,75.9,69.6,29.72,North,-999,-999.0,-999.0,81,-99.99,,,-99.99,meteohub,2013-08-09 08:02:00,
2013-08-09 04:07:00,75.7,69.8,29.72,North,-999,-999.0,-999.0,82,-99.99,,,-99.99,meteohub,2013-08-09 08:07:00,
2013-08-09 04:12:00,75.7,69.8,29.72,North,-999,-999.0,-999.0,82,-99.99,,,-99.99,meteohub,2013-08-09 08:12:00,
2013-08-09 04:17:00,75.6,69.6,29.72,North,-999,-999.0,-999.0,82,-99.99,,,-99.99,meteohub,2013-08-09 08:17:00,
2013-08-09 04:22:00,75.6,69.6,29.72,North,-999,-999.0,-999.0,82,-99.99,,,-99.99,meteohub,2013-08-09 08:22:00,
2013-08-09 04:27:00,75.6,70.0,29.72,North,-999,-999.0,-999.0,83,-99.99,,,-99.99,meteohub,2013-08-09 08:27:00,
2013-08-09 04:32:00,75.6,70.0,29.72,North,-999,-999.0,-999.0,83,-99.99,,,-99.99,meteohub,2013-08-09 08:32:00,
2013-08-09 04:37:00,75.6,70.0,29.72,North,-999,-999.0,-999.0,83,-99.99,,,-99.99,meteohub,2013-08-09 08:37:00,
2013-08-09 04:42:00,75.4,69.8,29.72,North,-999,-999.0,-999.0,83,-99.99,,,-99.99,meteohub,2013-08-09 08:42:00,
2013-08-09 04:47:00,75.4,70.2,29.72,North,-999,-999.0,-999.0,84,-99.99,,,-99.99,meteohub,2013-08-09 08:47:00,
2013-08-09 04:52:00,75.4,70.2,29.72,North,-999,-999.0,-999.0,84,-99.99,,,-99.99,meteohub,2013-08-09 08:52:00,
2013-08-09 04:57:00,75.4,70.2,29.72,North,-999,-999.0,-999.0,84,-99.99,,,-99.99,meteohub,2013-08-09 08:57:00,
2013-08-09 05:02:00,75.2,70.0,29.72,North,-999,-999.0,-999.0,84,-99.99,,,-99.99,meteohub,2013-08-09 09:02:00,
2013-08-09 05:07:00,75.2,70.0,29.72,North,-999,-999.0,-999.0,84,-99.99,,,-99.99,meteohub,2013-08-09 09:07:00,
2013-08-09 05:12:00,75.2,70.0,29.72,North,-999,-999.0,-999.0,84,-99.99,,,-99.99,meteohub,2013-08-09 09:12:00,
2013-08-09 05:17:00,75.2,70.0,29.72,North,-999,-999.0,-999.0,84,-99.99,,,-99.99,meteohub,2013-08-09 09:17:00,
2013-08-09 05:22:00,75.2,70.0,29.72,North,-999,-999.0,-999.0,84,-99.99,,,-99.99,meteohub,2013-08-09 09:22:00,
2013-08-09 05:27:00,75.2,70.0,29.72,North,-999,-999.0,-999.0,84,-99.99,,,-99.99,meteohub,2013-08-09 09:27:00,
2013-08-09 05:32:00,75.0,70.2,29.72,North,-999,-999.0,-999.0,85,-99.99,,,-99.99,meteohub,2013-08-09 09:32:00,
2013-08-09 05:37:00,75.0,70.2,29.72,North,-999,-999.0,-999.0,85,-99.99,,,-99.99,meteohub,2013-08-09 09:37:00,
2013-08-09 05:42:00,75.0,70.2,29.72,North,-999,-999.0,-999.0,85,-99.99,,,-99.99,meteohub,2013-08-09 09:42:00,
2013-08-09 05:47:00,75.0,70.5,29.72,North,-999,-999.0,-999.0,86,-99.99,,,-99.99,meteohub,2013-08-09 09:47:00,
2013-08-09 05:52:00,75.0,70.5,29.72,North,-999,-999.0,-999.0,86,-99.99,,,-99.99,meteohub,2013-08-09 09:52:00,
2013-08-09 05:57:00,75.0,70.5,29.72,North,-999,-999.0,-999.0,86,-99.99,,,-99.99,meteohub,2013-08-09 09:57:00,
2013-08-09 06:02:00,75.0,70.5,29.72,North,-999,-999.0,-999.0,86,-99.99,,,-99.99,meteohub,2013-08-09 10:02:00,
2013-08-09 06:07:00,75.0,70.5,29.72,North,-999,-999.0,-999.0,86,-99.99,,,-99.99,meteohub,2013-08-09 10:07:00,
2013-08-09 06:12:00,75.0,70.5,29.72,North,-999,-999.0,-999.0,86,-99.99,,,-99.99,meteohub,2013-08-09 10:12:00,
2013-08-09 06:17:00,74.8,70.3,29.72,North,-999,-999.0,-999.0,86,-99.99,,,-99.99,meteohub,2013-08-09 10:17:00,
2013-08-09 06:22:00,74.8,70.3,29.75,North,-999,-999.0,-999.0,86,-99.99,,,-99.99,meteohub,2013-08-09 10:22:00,
2013-08-09 06:27:00,74.8,70.3,29.75,North,-999,-999.0,-999.0,86,-99.99,,,-99.99,meteohub,2013-08-09 10:27:00,
2013-08-09 06:32:00,74.8,70.3,29.75,North,-999,-999.0,-999.0,86,-99.99,,,-99.99,meteohub,2013-08-09 10:32:00,
2013-08-09 06:37:00,74.8,70.3,29.75,North,-999,-999.0,-999.0,86,-99.99,,,-99.99,meteohub,2013-08-09 10:37:00,
2013-08-09 06:42:00,74.8,70.3,29.75,North,-999,-999.0,-999.0,86,-99.99,,,-99.99,meteohub,2013-08-09 10:42:00,
2013-08-09 06:47:00,74.8,70.7,29.75,North,-999,-999.0,-999.0,87,-99.99,,,-99.99,meteohub,2013-08-09 10:47:00,
2013-08-09 06:52:00,74.8,70.7,29.75,North,-999,-999.0,-999.0,87,-99.99,,,-99.99,meteohub,2013-08-09 10:52:00,
2013-08-09 06:57:00,75.0,70.9,29.75,North,-999,-999.0,-999.0,87,-99.99,,,-99.99,meteohub,2013-08-09 10:57:00,
2013-08-09 07:02:00,75.0,70.9,29.75,North,-999,-999.0,-999.0,87,-99.99,,,-99.99,meteohub,2013-08-09 11:02:00,
2013-08-09 07:07:00,75.2,71.1,29.75,North,-999,-999.0,-999.0,87,-99.99,,,-99.99,meteohub,2013-08-09 11:07:00,
2013-08-09 07:12:00,75.2,71.1,29.75,North,-999,-999.0,-999.0,87,-99.99,,,-99.99,meteohub,2013-08-09 11:12:00,
2013-08-09 07:17:00,75.2,71.1,29.75,North,-999,-999.0,-999.0,87,-99.99,,,-99.99,meteohub,2013-08-09 11:17:00,
2013-08-09 07:22:00,75.4,71.2,29.75,North,-999,-999.0,-999.0,87,-99.99,,,-99.99,meteohub,2013-08-09 11:22:00,
2013-08-09 07:27:00,75.4,71.2,29.75,North,-999,-999.0,-999.0,87,-99.99,,,-99.99,meteohub,2013-08-09 11:27:00,
2013-08-09 07:32:00,75.6,71.4,29.75,North,-999,-999.0,-999.0,87,-99.99,,,-99.99,meteohub,2013-08-09 11:32:00,
2013-08-09 07:37:00,75.6,71.4,29.75,North,-999,-999.0,-999.0,87,-99.99,,,-99.99,meteohub,2013-08-09 11:37:00,
2013-08-09 07:42:00,75.7,71.6,29.75,North,-999,-999.0,-999.0,87,-99.99,,,-99.99,meteohub,2013-08-09 11:42:00,
2013-08-09 07:47:00,75.9,71.8,29.75,North,-999,-999.0,-999.0,87,-99.99,,,-99.99,meteohub,2013-08-09 11:47:00,
2013-08-09 07:53:00,76.1,72.0,29.75,North,-999,-999.0,-999.0,87,-99.99,,,-99.99,meteohub,2013-08-09 11:53:00,
2013-08-09 07:58:00,76.1,72.0,29.75,North,-999,-999.0,-999.0,87,-99.99,,,-99.99,meteohub,2013-08-09 11:58:00,
2013-08-09 08:03:00,76.3,72.1,29.75,North,-999,-999.0,-999.0,87,-99.99,,,-99.99,meteohub,2013-08-09 12:03:00,
2013-08-09 08:08:00,76.5,72.0,29.75,North,-999,-999.0,-999.0,86,-99.99,,,-99.99,meteohub,2013-08-09 12:08:00,
2013-08-09 08:13:00,76.6,72.1,29.75,North,-999,-999.0,-999.0,86,-99.99,,,-99.99,meteohub,2013-08-09 12:13:00,
2013-08-09 08:18:00,77.0,72.1,29.75,North,-999,-999.0,-999.0,85,-99.99,,,-99.99,meteohub,2013-08-09 12:18:00,
2013-08-09 08:23:00,77.2,72.3,29.75,North,-999,-999.0,-999.0,85,-99.99,,,-99.99,meteohub,2013-08-09 12:23:00,
2013-08-09 08:28:00,77.4,72.5,29.75,North,-999,-999.0,-999.0,85,-99.99,,,-99.99,meteohub,2013-08-09 12:28:00,
2013-08-09 08:34:00,77.5,72.3,29.75,North,-999,-999.0,-999.0,84,-99.99,,,-99.99,meteohub,2013-08-09 12:34:00,
2013-08-09 08:39:00,77.9,72.7,29.75,North,-999,-999.0,-999.0,84,-99.99,,,-99.99,meteohub,2013-08-09 12:39:00,
2013-08-09 08:44:00,77.9,72.3,29.75,North,-999,-999.0,-999.0,83,-99.99,,,-99.99,meteohub,2013-08-09 12:44:00,
2013-08-09 08:49:00,77.9,72.3,29.78,North,-999,-999.0,-999.0,83,-99.99,,,-99.99,meteohub,2013-08-09 12:49:00,
2013-08-09 08:54:00,78.1,72.1,29.78,North,-999,-999.0,-999.0,82,-99.99,,,-99.99,meteohub,2013-08-09 12:54:00,
2013-08-09 08:59:00,78.3,72.3,29.78,North,-999,-999.0,-999.0,82,-99.99,,,-99.99,meteohub,2013-08-09 12:59:00,
2013-08-09 09:04:00,78.4,72.5,29.78,North,-999,-999.0,-999.0,82,-99.99,,,-99.99,meteohub,2013-08-09 13:04:00,
2013-08-09 09:09:00,78.8,72.5,29.78,North,-999,-999.0,-999.0,81,-99.99,,,-99.99,meteohub,2013-08-09 13:09:00,
2013-08-09 09:14:00,79.0,72.7,29.78,North,-999,-999.0,-999.0,81,-99.99,,,-99.99,meteohub,2013-08-09 13:14:00,
2013-08-09 09:20:00,79.2,72.5,29.78,North,-999,-999.0,-999.0,80,-99.99,,,-99.99,meteohub,2013-08-09 13:20:00,
2013-08-09 09:25:00,79.2,72.5,29.78,North,-999,-999.0,-999.0,80,-99.99,,,-99.99,meteohub,2013-08-09 13:25:00,
2013-08-09 09:30:00,79.3,72.3,29.78,North,-999,-999.0,-999.0,79,-99.99,,,-99.99,meteohub,2013-08-09 13:30:00,
2013-08-09 09:35:00,79.5,72.1,29.75,North,-999,-999.0,-999.0,78,-99.99,,,-99.99,meteohub,2013-08-09 13:35:00,
2013-08-09 09:40:00,79.9,72.3,29.75,North,-999,-999.0,-999.0,78,-99.99,,,-99.99,meteohub,2013-08-09 13:40:00,
2013-08-09 09:45:00,80.2,72.7,29.75,North,-999,-999.0,-999.0,78,-99.99,,,-99.99,meteohub,2013-08-09 13:45:00,
2013-08-09 09:50:00,80.2,72.3,29.78,North,-999,-999.0,-999.0,77,-99.99,,,-99.99,meteohub,2013-08-09 13:50:00,
2013-08-09 09:55:00,80.4,72.5,29.78,North,-999,-999.0,-999.0,77,-99.99,,,-99.99,meteohub,2013-08-09 13:55:00,
2013-08-09 10:01:00,80.6,72.3,29.78,North,-999,-999.0,-999.0,76,-99.99,,,-99.99,meteohub,2013-08-09 14:01:00,
2013-08-09 10:06:00,80.8,72.5,29.78,North,-999,-999.0,-999.0,76,-99.99,,,-99.99,meteohub,2013-08-09 14:06:00,
2013-08-09 10:11:00,81.0,72.0,29.78,North,-999,-999.0,-999.0,74,-99.99,,,-99.99,meteohub,2013-08-09 14:11:00,
2013-08-09 10:16:00,81.1,72.5,29.78,North,-999,-999.0,-999.0,75,-99.99,,,-99.99,meteohub,2013-08-09 14:16:00,
2013-08-09 10:21:00,81.5,72.9,29.78,North,-999,-999.0,-999.0,75,-99.99,,,-99.99,meteohub,2013-08-09 14:21:00,
2013-08-09 10:26:00,81.5,72.9,29.78,North,-999,-999.0,-999.0,75,-99.99,,,-99.99,meteohub,2013-08-09 14:26:00,
2013-08-09 10:31:00,81.9,72.7,29.78,North,-999,-999.0,-999.0,74,-99.99,,,-99.99,meteohub,2013-08-09 14:31:00,
2013-08-09 10:36:00,82.4,72.9,29.78,North,-999,-999.0,-999.0,73,-99.99,,,-99.99,meteohub,2013-08-09 14:36:00,
2013-08-09 10:41:00,82.6,72.7,29.78,North,-999,-999.0,-999.0,72,-99.99,,,-99.99,meteohub,2013-08-09 14:41:00,
2013-08-09 10:47:00,82.9,72.1,29.78,North,-999,-999.0,-999.0,70,-99.99,,,-99.99,meteohub,2013-08-09 14:47:00,
2013-08-09 10:52:00,83.1,72.3,29.78,North,-999,-999.0,-999.0,70,-99.99,,,-99.99,meteohub,2013-08-09 14:52:00,
2013-08-09 10:57:00,83.5,72.7,29.78,North,-999,-999.0,-999.0,70,-99.99,,,-99.99,meteohub,2013-08-09 14:57:00,
2013-08-09 11:02:00,83.7,72.3,29.78,North,-999,-999.0,-999.0,69,-99.99,,,-99.99,meteohub,2013-08-09 15:02:00,
2013-08-09 11:07:00,83.7,72.3,29.78,North,-999,-999.0,-999.0,69,-99.99,,,-99.99,meteohub,2013-08-09 15:07:00,
2013-08-09 11:12:00,83.8,73.0,29.78,North,-999,-999.0,-999.0,70,-99.99,,,-99.99,meteohub,2013-08-09 15:12:00,
2013-08-09 11:17:00,84.4,72.7,29.78,North,-999,-999.0,-999.0,68,-99.99,,,-99.99,meteohub,2013-08-09 15:17:00,
2013-08-09 11:22:00,84.4,72.1,29.78,North,-999,-999.0,-999.0,67,-99.99,,,-99.99,meteohub,2013-08-09 15:22:00,
2013-08-09 11:27:00,84.7,72.5,29.78,North,-999,-999.0,-999.0,67,-99.99,,,-99.99,meteohub,2013-08-09 15:27:00,
2013-08-09 11:32:00,85.3,73.0,29.78,North,-999,-999.0,-999.0,67,-99.99,,,-99.99,meteohub,2013-08-09 15:32:00,
2013-08-09 11:37:00,85.6,73.4,29.78,North,-999,-999.0,-999.0,67,-99.99,,,-99.99,meteohub,2013-08-09 15:37:00,
2013-08-09 11:42:00,86.4,73.2,29.78,North,-999,-999.0,-999.0,65,-99.99,,,-99.99,meteohub,2013-08-09 15:42:00,
2013-08-09 11:47:00,86.5,72.0,29.78,North,-999,-999.0,-999.0,62,-99.99,,,-99.99,meteohub,2013-08-09 15:47:00,
2013-08-09 11:52:00,86.9,72.3,29.78,North,-999,-999.0,-999.0,62,-99.99,,,-99.99,meteohub,2013-08-09 15:52:00,
2013-08-09 11:57:00,87.6,72.0,29.78,North,-999,-999.0,-999.0,60,-99.99,,,-99.99,meteohub,2013-08-09 15:57:00,
2013-08-09 12:02:00,87.4,71.8,29.78,North,-999,-999.0,-999.0,60,-99.99,,,-99.99,meteohub,2013-08-09 16:02:00,
2013-08-09 12:07:00,87.8,72.1,29.78,North,-999,-999.0,-999.0,60,-99.99,,,-99.99,meteohub,2013-08-09 16:07:00,
2013-08-09 12:12:00,87.4,69.3,29.78,North,-999,-999.0,-999.0,55,-99.99,,,-99.99,meteohub,2013-08-09 16:12:00,
2013-08-09 12:17:00,88.3,70.7,29.78,North,-999,-999.0,-999.0,56,-99.99,,,-99.99,meteohub,2013-08-09 16:17:00,
2013-08-09 12:22:00,89.2,72.5,29.78,North,-999,-999.0,-999.0,58,-99.99,,,-99.99,meteohub,2013-08-09 16:22:00,
2013-08-09 12:27:00,90.0,72.7,29.78,North,-999,-999.0,-999.0,57,-99.99,,,-99.99,meteohub,2013-08-09 16:27:00,
2013-08-09 12:32:00,90.0,71.1,29.78,North,-999,-999.0,-999.0,54,-99.99,,,-99.99,meteohub,2013-08-09 16:32:00,
2013-08-09 12:37:00,89.2,71.4,29.78,North,-999,-999.0,-999.0,56,-99.99,,,-99.99,meteohub,2013-08-09 16:37:00,
2013-08-09 12:42:00,89.8,70.3,29.78,North,-999,-999.0,-999.0,53,-99.99,,,-99.99,meteohub,2013-08-09 16:42:00,
2013-08-09 12:47:00,89.6,69.6,29.78,North,-999,-999.0,-999.0,52,-99.99,,,-99.99,meteohub,2013-08-09 16:47:00,
2013-08-09 12:52:00,90.1,70.2,29.78,North,-999,-999.0,-999.0,52,-99.99,,,-99.99,meteohub,2013-08-09 16:52:00,
2013-08-09 12:57:00,90.0,69.4,29.78,North,-999,-999.0,-999.0,51,-99.99,,,-99.99,meteohub,2013-08-09 16:57:00,
2013-08-09 13:02:00,90.5,69.8,29.78,North,-999,-999.0,-999.0,51,-99.99,,,-99.99,meteohub,2013-08-09 17:02:00,
2013-08-09 13:07:00,90.3,69.8,29.78,North,-999,-999.0,-999.0,51,-99.99,,,-99.99,meteohub,2013-08-09 17:07:00,
2013-08-09 13:12:00,90.7,70.0,29.78,North,-999,-999.0,-999.0,51,-99.99,,,-99.99,meteohub,2013-08-09 17:12:00,
2013-08-09 13:17:00,90.9,70.7,29.78,North,-999,-999.0,-999.0,52,-99.99,,,-99.99,meteohub,2013-08-09 17:17:00,
2013-08-09 13:22:00,90.7,70.7,29.78,North,-999,-999.0,-999.0,52,-99.99,,,-99.99,meteohub,2013-08-09 17:22:00,
2013-08-09 13:27:00,90.5,69.8,29.78,North,-999,-999.0,-999.0,51,-99.99,,,-99.99,meteohub,2013-08-09 17:27:00,
2013-08-09 13:32:00,90.3,69.1,29.78,North,-999,-999.0,-999.0,50,-99.99,,,-99.99,meteohub,2013-08-09 17:32:00,
2013-08-09 13:37:00,90.5,69.8,29.78,North,-999,-999.0,-999.0,51,-99.99,,,-99.99,meteohub,2013-08-09 17:37:00,
2013-08-09 13:42:00,89.8,69.8,29.78,North,-999,-999.0,-999.0,52,-99.99,,,-99.99,meteohub,2013-08-09 17:42:00,
2013-08-09 13:47:00,89.1,68.5,29.78,North,-999,-999.0,-999.0,51,-99.99,,,-99.99,meteohub,2013-08-09 17:47:00,
2013-08-09 13:52:00,89.1,69.1,29.78,North,-999,-999.0,-999.0,52,-99.99,,,-99.99,meteohub,2013-08-09 17:52:00,
2013-08-09 13:57:00,89.1,70.2,29.78,North,-999,-999.0,-999.0,54,-99.99,,,-99.99,meteohub,2013-08-09 17:57:00,
2013-08-09 14:02:00,90.1,70.2,29.78,North,-999,-999.0,-999.0,52,-99.99,,,-99.99,meteohub,2013-08-09 18:02:00,
2013-08-09 14:08:00,90.9,70.2,29.78,North,-999,-999.0,-999.0,51,-99.99,,,-99.99,meteohub,2013-08-09 18:08:00,
2013-08-09 14:13:00,91.0,70.3,29.78,North,-999,-999.0,-999.0,51,-99.99,,,-99.99,meteohub,2013-08-09 18:13:00,
2013-08-09 14:18:00,90.3,69.1,29.78,North,-999,-999.0,-999.0,50,-99.99,,,-99.99,meteohub,2013-08-09 18:18:00,
2013-08-09 14:23:00,90.5,69.3,29.78,North,-999,-999.0,-999.0,50,-99.99,,,-99.99,meteohub,2013-08-09 18:23:00,
2013-08-09 14:28:00,90.5,69.8,29.78,North,-999,-999.0,-999.0,51,-99.99,,,-99.99,meteohub,2013-08-09 18:28:00,
2013-08-09 14:33:00,90.1,69.6,29.78,North,-999,-999.0,-999.0,51,-99.99,,,-99.99,meteohub,2013-08-09 18:33:00,
2013-08-09 14:38:00,90.3,69.8,29.78,North,-999,-999.0,-999.0,51,-99.99,,,-99.99,meteohub,2013-08-09 18:38:00,
2013-08-09 14:43:00,90.5,69.3,29.78,North,-999,-999.0,-999.0,50,-99.99,,,-99.99,meteohub,2013-08-09 18:43:00,
2013-08-09 14:48:00,90.7,70.0,29.78,North,-999,-999.0,-999.0,51,-99.99,,,-99.99,meteohub,2013-08-09 18:48:00,
2013-08-09 14:54:00,91.2,70.0,29.78,North,-999,-999.0,-999.0,50,-99.99,,,-99.99,meteohub,2013-08-09 18:54:00,
2013-08-09 14:59:00,91.0,69.8,29.78,North,-999,-999.0,-999.0,50,-99.99,,,-99.99,meteohub,2013-08-09 18:59:00,
2013-08-09 15:04:00,90.9,69.1,29.78,North,-999,-999.0,-999.0,49,-99.99,,,-99.99,meteohub,2013-08-09 19:04:00,
2013-08-09 15:09:00,91.0,69.8,29.78,North,-999,-999.0,-999.0,50,-99.99,,,-99.99,meteohub,2013-08-09 19:09:00,
2013-08-09 15:14:00,91.4,70.2,29.78,North,-999,-999.0,-999.0,50,-99.99,,,-99.99,meteohub,2013-08-09 19:14:00,
2013-08-09 15:19:00,90.9,68.4,29.75,North,-999,-999.0,-999.0,48,-99.99,,,-99.99,meteohub,2013-08-09 19:19:00,
2013-08-09 15:24:00,89.8,68.0,29.75,North,-999,-999.0,-999.0,49,-99.99,,,-99.99,meteohub,2013-08-09 19:24:00,
2013-08-09 15:29:00,90.0,69.4,29.75,North,-999,-999.0,-999.0,51,-99.99,,,-99.99,meteohub,2013-08-09 19:29:00,
2013-08-09 15:35:00,90.7,69.4,29.75,North,-999,-999.0,-999.0,50,-99.99,,,-99.99,meteohub,2013-08-09 19:35:00,
2013-08-09 15:40:00,91.2,70.0,29.75,North,-999,-999.0,-999.0,50,-99.99,,,-99.99,meteohub,2013-08-09 19:40:00,
2013-08-09 15:45:00,91.2,69.4,29.75,North,-999,-999.0,-999.0,49,-99.99,,,-99.99,meteohub,2013-08-09 19:45:00,
2013-08-09 15:50:00,91.0,69.3,29.75,North,-999,-999.0,-999.0,49,-99.99,,,-99.99,meteohub,2013-08-09 19:50:00,
2013-08-09 15:55:00,90.3,69.1,29.75,North,-999,-999.0,-999.0,50,-99.99,,,-99.99,meteohub,2013-08-09 19:55:00,
2013-08-09 16:00:00,90.5,69.3,29.75,North,-999,-999.0,-999.0,50,-99.99,,,-99.99,meteohub,2013-08-09 20:00:00,
2013-08-09 16:05:00,90.7,69.4,29.75,North,-999,-999.0,-999.0,50,-99.99,,,-99.99,meteohub,2013-08-09 20:05:00,
2013-08-09 16:10:00,90.9,68.4,29.75,North,-999,-999.0,-999.0,48,-99.99,,,-99.99,meteohub,2013-08-09 20:10:00,
2013-08-09 16:16:00,91.0,69.3,29.75,North,-999,-999.0,-999.0,49,-99.99,,,-99.99,meteohub,2013-08-09 20:16:00,
2013-08-09 16:21:00,90.9,69.6,29.75,North,-999,-999.0,-999.0,50,-99.99,,,-99.99,meteohub,2013-08-09 20:21:00,
2013-08-09 16:26:00,91.0,69.3,29.75,North,-999,-999.0,-999.0,49,-99.99,,,-99.99,meteohub,2013-08-09 20:26:00,
2013-08-09 16:31:00,91.2,69.4,29.75,North,-999,-999.0,-999.0,49,-99.99,,,-99.99,meteohub,2013-08-09 20:31:00,
2013-08-09 16:36:00,91.0,68.5,29.75,North,-999,-999.0,-999.0,48,-99.99,,,-99.99,meteohub,2013-08-09 20:36:00,
2013-08-09 16:41:00,91.0,68.5,29.75,North,-999,-999.0,-999.0,48,-99.99,,,-99.99,meteohub,2013-08-09 20:41:00,
2013-08-09 16:46:00,90.7,67.6,29.75,North,-999,-999.0,-999.0,47,-99.99,,,-99.99,meteohub,2013-08-09 20:46:00,
2013-08-09 16:51:00,90.9,67.8,29.75,North,-999,-999.0,-999.0,47,-99.99,,,-99.99,meteohub,2013-08-09 20:51:00,
2013-08-09 16:57:00,90.5,67.5,29.75,North,-999,-999.0,-999.0,47,-99.99,,,-99.99,meteohub,2013-08-09 20:57:00,
2013-08-09 17:02:00,90.7,68.4,29.75,North,-999,-999.0,-999.0,48,-99.99,,,-99.99,meteohub,2013-08-09 21:02:00,
2013-08-09 17:07:00,90.5,68.2,29.75,North,-999,-999.0,-999.0,48,-99.99,,,-99.99,meteohub,2013-08-09 21:07:00,
2013-08-09 17:12:00,90.5,68.2,29.75,North,-999,-999.0,-999.0,48,-99.99,,,-99.99,meteohub,2013-08-09 21:12:00,
2013-08-09 17:17:00,90.0,67.6,29.75,North,-999,-999.0,-999.0,48,-99.99,,,-99.99,meteohub,2013-08-09 21:17:00,
2013-08-09 17:22:00,89.6,67.8,29.78,North,-999,-999.0,-999.0,49,-99.99,,,-99.99,meteohub,2013-08-09 21:22:00,
2013-08-09 17:27:00,88.9,67.3,29.78,North,-999,-999.0,-999.0,49,-99.99,,,-99.99,meteohub,2013-08-09 21:27:00,
2013-08-09 17:32:00,88.5,67.5,29.78,North,-999,-999.0,-999.0,50,-99.99,,,-99.99,meteohub,2013-08-09 21:32:00,
2013-08-09 17:37:00,88.3,67.3,29.75,North,-999,-999.0,-999.0,50,-99.99,,,-99.99,meteohub,2013-08-09 21:37:00,
2013-08-09 17:42:00,88.3,67.8,29.75,North,-999,-999.0,-999.0,51,-99.99,,,-99.99,meteohub,2013-08-09 21:42:00,
2013-08-09 17:47:00,88.0,68.2,29.75,North,-999,-999.0,-999.0,52,-99.99,,,-99.99,meteohub,2013-08-09 21:47:00,
2013-08-09 17:52:00,87.8,68.0,29.75,North,-999,-999.0,-999.0,52,-99.99,,,-99.99,meteohub,2013-08-09 21:52:00,
2013-08-09 17:57:00,87.6,68.9,29.75,North,-999,-999.0,-999.0,54,-99.99,,,-99.99,meteohub,2013-08-09 21:57:00,
2013-08-09 18:02:00,87.3,69.1,29.75,North,-999,-999.0,-999.0,55,-99.99,,,-99.99,meteohub,2013-08-09 22:02:00,
2013-08-09 18:07:00,87.3,69.1,29.75,North,-999,-999.0,-999.0,55,-99.99,,,-99.99,meteohub,2013-08-09 22:07:00,
2013-08-09 18:12:00,87.1,68.9,29.75,North,-999,-999.0,-999.0,55,-99.99,,,-99.99,meteohub,2013-08-09 22:12:00,
2013-08-09 18:17:00,87.1,69.4,29.75,North,-999,-999.0,-999.0,56,-99.99,,,-99.99,meteohub,2013-08-09 22:17:00,
2013-08-09 18:22:00,86.7,69.6,29.75,North,-999,-999.0,-999.0,57,-99.99,,,-99.99,meteohub,2013-08-09 22:22:00,
2013-08-09 18:27:00,86.5,70.0,29.75,North,-999,-999.0,-999.0,58,-99.99,,,-99.99,meteohub,2013-08-09 22:27:00,
2013-08-09 18:32:00,86.4,69.8,29.75,North,-999,-999.0,-999.0,58,-99.99,,,-99.99,meteohub,2013-08-09 22:32:00,
2013-08-09 18:37:00,86.2,70.2,29.72,North,-999,-999.0,-999.0,59,-99.99,,,-99.99,meteohub,2013-08-09 22:37:00,
2013-08-09 18:42:00,85.8,70.3,29.72,North,-999,-999.0,-999.0,60,-99.99,,,-99.99,meteohub,2013-08-09 22:42:00,
2013-08-09 18:47:00,85.6,70.2,29.72,North,-999,-999.0,-999.0,60,-99.99,,,-99.99,meteohub,2013-08-09 22:47:00,
2013-08-09 18:52:00,85.5,70.5,29.72,North,-999,-999.0,-999.0,61,-99.99,,,-99.99,meteohub,2013-08-09 22:52:00,
2013-08-09 18:57:00,85.3,70.3,29.72,North,-999,-999.0,-999.0,61,-99.99,,,-99.99,meteohub,2013-08-09 22:57:00,
2013-08-09 19:02:00,85.3,70.7,29.72,North,-999,-999.0,-999.0,62,-99.99,,,-99.99,meteohub,2013-08-09 23:02:00,
2013-08-09 19:07:00,84.9,70.5,29.72,North,-999,-999.0,-999.0,62,-99.99,,,-99.99,meteohub,2013-08-09 23:07:00,
2013-08-09 19:12:00,84.7,70.3,29.72,North,-999,-999.0,-999.0,62,-99.99,,,-99.99,meteohub,2013-08-09 23:12:00,
2013-08-09 19:17:00,84.6,70.5,29.72,North,-999,-999.0,-999.0,63,-99.99,,,-99.99,meteohub,2013-08-09 23:17:00,
2013-08-09 19:22:00,84.6,70.5,29.72,North,-999,-999.0,-999.0,63,-99.99,,,-99.99,meteohub,2013-08-09 23:22:00,
2013-08-09 19:27:00,84.4,70.3,29.72,North,-999,-999.0,-999.0,63,-99.99,,,-99.99,meteohub,2013-08-09 23:27:00,
2013-08-09 19:32:00,84.2,70.7,29.72,North,-999,-999.0,-999.0,64,-99.99,,,-99.99,meteohub,2013-08-09 23:32:00,
2013-08-09 19:37:00,84.0,70.5,29.75,North,-999,-999.0,-999.0,64,-99.99,,,-99.99,meteohub,2013-08-09 23:37:00,
2013-08-09 19:42:00,83.7,70.2,29.75,North,-999,-999.0,-999.0,64,-99.99,,,-99.99,meteohub,2013-08-09 23:42:00,
2013-08-09 19:47:00,83.5,70.0,29.75,North,-999,-999.0,-999.0,64,-99.99,,,-99.99,meteohub,2013-08-09 23:47:00,
2013-08-09 19:52:00,83.3,69.8,29.75,North,-999,-999.0,-999.0,64,-99.99,,,-99.99,meteohub,2013-08-09 23:52:00,
2013-08-09 19:57:00,83.1,70.2,29.75,North,-999,-999.0,-999.0,65,-99.99,,,-99.99,meteohub,2013-08-09 23:57:00,
2013-08-09 20:02:00,82.9,70.0,29.75,North,-999,-999.0,-999.0,65,-99.99,,,-99.99,meteohub,2013-08-10 00:02:00,
2013-08-09 20:07:00,82.8,69.8,29.75,North,-999,-999.0,-999.0,65,-99.99,,,-99.99,meteohub,2013-08-10 00:07:00,
2013-08-09 20:12:00,82.6,69.6,29.75,North,-999,-999.0,-999.0,65,-99.99,,,-99.99,meteohub,2013-08-10 00:12:00,
2013-08-09 20:17:00,82.4,69.1,29.75,North,-999,-999.0,-999.0,64,-99.99,,,-99.99,meteohub,2013-08-10 00:17:00,
2013-08-09 20:22:00,82.2,68.9,29.75,North,-999,-999.0,-999.0,64,-99.99,,,-99.99,meteohub,2013-08-10 00:22:00,
2013-08-09 20:27:00,82.0,68.7,29.75,North,-999,-999.0,-999.0,64,-99.99,,,-99.99,meteohub,2013-08-10 00:27:00,
2013-08-09 20:32:00,81.9,68.5,29.75,North,-999,-999.0,-999.0,64,-99.99,,,-99.99,meteohub,2013-08-10 00:32:00,
2013-08-09 20:37:00,81.9,68.5,29.75,North,-999,-999.0,-999.0,64,-99.99,,,-99.99,meteohub,2013-08-10 00:37:00,
2013-08-09 20:42:00,81.7,68.4,29.75,North,-999,-999.0,-999.0,64,-99.99,,,-99.99,meteohub,2013-08-10 00:42:00,
2013-08-09 20:47:00,81.3,68.0,29.75,North,-999,-999.0,-999.0,64,-99.99,,,-99.99,meteohub,2013-08-10 00:47:00,
2013-08-09 20:52:00,81.3,68.0,29.75,North,-999,-999.0,-999.0,64,-99.99,,,-99.99,meteohub,2013-08-10 00:52:00,
2013-08-09 20:57:00,81.1,67.8,29.75,North,-999,-999.0,-999.0,64,-99.99,,,-99.99,meteohub,2013-08-10 00:57:00,
2013-08-09 21:02:00,81.1,67.8,29.75,North,-999,-999.0,-999.0,64,-99.99,,,-99.99,meteohub,2013-08-10 01:02:00,
2013-08-09 21:07:00,81.1,67.8,29.75,North,-999,-999.0,-999.0,64,-99.99,,,-99.99,meteohub,2013-08-10 01:07:00,
2013-08-09 21:12:00,81.0,67.6,29.75,North,-999,-999.0,-999.0,64,-99.99,,,-99.99,meteohub,2013-08-10 01:12:00,
2013-08-09 21:17:00,80.8,67.5,29.75,North,-999,-999.0,-999.0,64,-99.99,,,-99.99,meteohub,2013-08-10 01:17:00,
2013-08-09 21:22:00,80.6,67.3,29.75,North,-999,-999.0,-999.0,64,-99.99,,,-99.99,meteohub,2013-08-10 01:22:00,
2013-08-09 21:27:00,80.6,67.8,29.75,North,-999,-999.0,-999.0,65,-99.99,,,-99.99,meteohub,2013-08-10 01:27:00,
2013-08-09 21:32:00,80.4,68.0,29.75,North,-999,-999.0,-999.0,66,-99.99,,,-99.99,meteohub,2013-08-10 01:32:00,
2013-08-09 21:37:00,80.4,68.0,29.75,North,-999,-999.0,-999.0,66,-99.99,,,-99.99,meteohub,2013-08-10 01:37:00,
2013-08-09 21:42:00,80.2,68.4,29.75,North,-999,-999.0,-999.0,67,-99.99,,,-99.99,meteohub,2013-08-10 01:42:00,
2013-08-09 21:47:00,80.2,68.4,29.75,North,-999,-999.0,-999.0,67,-99.99,,,-99.99,meteohub,2013-08-10 01:47:00,
2013-08-09 21:52:00,80.1,68.2,29.75,North,-999,-999.0,-999.0,67,-99.99,,,-99.99,meteohub,2013-08-10 01:52:00,
2013-08-09 21:57:00,80.1,68.2,29.75,North,-999,-999.0,-999.0,67,-99.99,,,-99.99,meteohub,2013-08-10 01:57:00,
2013-08-09 22:02:00,79.9,68.4,29.75,North,-999,-999.0,-999.0,68,-99.99,,,-99.99,meteohub,2013-08-10 02:02:00,
2013-08-09 22:07:00,79.9,68.4,29.75,North,-999,-999.0,-999.0,68,-99.99,,,-99.99,meteohub,2013-08-10 02:07:00,
2013-08-09 22:12:00,79.7,68.2,29.75,North,-999,-999.0,-999.0,68,-99.99,,,-99.99,meteohub,2013-08-10 02:12:00,
2013-08-09 22:17:00,79.7,68.2,29.75,North,-999,-999.0,-999.0,68,-99.99,,,-99.99,meteohub,2013-08-10 02:17:00,
2013-08-09 22:22:00,79.7,68.2,29.75,North,-999,-999.0,-999.0,68,-99.99,,,-99.99,meteohub,2013-08-10 02:22:00,
2013-08-09 22:27:00,79.5,68.5,29.75,North,-999,-999.0,-999.0,69,-99.99,,,-99.99,meteohub,2013-08-10 02:27:00,
2013-08-09 22:32:00,79.3,68.4,29.75,North,-999,-999.0,-999.0,69,-99.99,,,-99.99,meteohub,2013-08-10 02:32:00,
2013-08-09 22:37:00,79.3,68.4,29.75,North,-999,-999.0,-999.0,69,-99.99,,,-99.99,meteohub,2013-08-10 02:37:00,
2013-08-09 22:42:00,79.2,68.2,29.75,North,-999,-999.0,-999.0,69,-99.99,,,-99.99,meteohub,2013-08-10 02:42:00,
2013-08-09 22:47:00,79.0,68.0,29.75,North,-999,-999.0,-999.0,69,-99.99,,,-99.99,meteohub,2013-08-10 02:47:00,
2013-08-09 22:52:00,79.0,68.4,29.75,North,-999,-999.0,-999.0,70,-99.99,,,-99.99,meteohub,2013-08-10 02:52:00,
2013-08-09 22:57:00,79.0,68.4,29.75,North,-999,-999.0,-999.0,70,-99.99,,,-99.99,meteohub,2013-08-10 02:57:00,
2013-08-09 23:02:00,79.0,68.4,29.75,North,-999,-999.0,-999.0,70,-99.99,,,-99.99,meteohub,2013-08-10 03:02:00,
2013-08-09 23:07:00,78.8,68.5,29.75,North,-999,-999.0,-999.0,71,-99.99,,,-99.99,meteohub,2013-08-10 03:07:00,
2013-08-09 23:12:00,78.8,68.5,29.75,North,-999,-999.0,-999.0,71,-99.99,,,-99.99,meteohub,2013-08-10 03:12:00,
2013-08-09 23:17:00,78.6,68.9,29.75,North,-999,-999.0,-999.0,72,-99.99,,,-99.99,meteohub,2013-08-10 03:17:00,
2013-08-09 23:22:00,78.6,69.3,29.75,North,-999,-999.0,-999.0,73,-99.99,,,-99.99,meteohub,2013-08-10 03:22:00,
2013-08-09 23:27:00,78.6,69.3,29.75,North,-999,-999.0,-999.0,73,-99.99,,,-99.99,meteohub,2013-08-10 03:27:00,
2013-08-09 23:32:00,78.6,69.3,29.75,North,-999,-999.0,-999.0,73,-99.99,,,-99.99,meteohub,2013-08-10 03:32:00,
2013-08-09 23:37:00,78.4,69.4,29.75,North,-999,-999.0,-999.0,74,-99.99,,,-99.99,meteohub,2013-08-10 03:37:00,
2013-08-09 23:42:00,78.3,69.3,29.75,North,-999,-999.0,-999.0,74,-99.99,,,-99.99,meteohub,2013-08-10 03:42:00,
2013-08-09 23:47:00,78.3,69.3,29.75,North,-999,-999.0,-999.0,74,-99.99,,,-99.99,meteohub,2013-08-10 03:47:00,
2013-08-09 23:52:00,78.1,69.1,29.75,North,-999,-999.0,-999.0,74,-99.99,,,-99.99,meteohub,2013-08-10 03:52:00,
2013-08-09 23:57:00,77.9,69.3,29.75,North,-999,-999.0,-999.0,75,-99.99,,,-99.99,meteohub,2013-08-10 03:57:00,